ANZ625 NZAA-NZQN

Flight info

Callsign ANZ625
Flight time 1h 50m
Altitude 34000
Route POLIS3Q KAPAI Y320 DOVOT UBDAM4A
Aircraft A320/M-SDE3FGHIRWY/LB1

Departure

Time 2026-05-07 09:48
Airport Auckland International Airport (NZAA)

Arrival

Time 2026-05-07 11:39
Airport Queenstown Airport (NZQN)
Time Latitude Longitude Altitude Speed Heading
2026-05-07 09:18 -37.00714 174.79104 40 ft 0 kts 342°
2026-05-07 09:39 -37.00730 174.79111 38 ft 4 kts 339°
2026-05-07 09:39 -37.00754 174.79125 37 ft 4 kts 328°
2026-05-07 09:40 -37.00774 174.79145 37 ft 4 kts 289°
2026-05-07 09:40 -37.00776 174.79161 38 ft 0 kts 249°
2026-05-07 09:43 -37.00776 174.79159 38 ft 2 kts 249°
2026-05-07 09:43 -37.00790 174.79123 39 ft 8 kts 234°
2026-05-07 09:43 -37.00854 174.79110 39 ft 11 kts 191°
2026-05-07 09:44 -37.00900 174.79024 39 ft 14 kts 250°
2026-05-07 09:44 -37.00934 174.78898 39 ft 17 kts 251°
2026-05-07 09:44 -37.00976 174.78751 40 ft 19 kts 251°
2026-05-07 09:44 -37.01019 174.78586 40 ft 21 kts 252°
2026-05-07 09:45 -37.01070 174.78401 38 ft 24 kts 250°
2026-05-07 09:45 -37.01127 174.78201 39 ft 25 kts 250°
2026-05-07 09:45 -37.01187 174.77984 40 ft 27 kts 251°
2026-05-07 09:45 -37.01252 174.77753 39 ft 29 kts 250°
2026-05-07 09:46 -37.01324 174.77509 40 ft 31 kts 251°
2026-05-07 09:46 -37.01393 174.77249 40 ft 32 kts 252°
2026-05-07 09:46 -37.01495 174.77102 40 ft 5 kts 189°
2026-05-07 09:46 -37.01496 174.77102 40 ft 0 kts 189°
2026-05-07 09:47 -37.01506 174.77100 40 ft 5 kts 189°
2026-05-07 09:47 -37.01571 174.77090 40 ft 14 kts 177°
2026-05-07 09:47 -37.01601 174.77184 41 ft 15 kts 70°
2026-05-07 09:47 -37.01522 174.77458 43 ft 63 kts 71°
2026-05-07 09:48 -37.01314 174.78211 40 ft 117 kts 71°
2026-05-07 09:48 -37.00998 174.79352 47 ft 158 kts 70°
2026-05-07 09:48 -37.00641 174.80663 547 ft 160 kts 69°
2026-05-07 09:48 -37.00286 174.81977 1161 ft 159 kts 66°
2026-05-07 09:49 -36.99926 174.83286 1779 ft 160 kts 65°
2026-05-07 09:49 -36.99542 174.84667 2078 ft 178 kts 65°
2026-05-07 09:49 -36.99107 174.86210 2302 ft 203 kts 65°
2026-05-07 09:49 -36.98610 174.87972 2606 ft 227 kts 66°
2026-05-07 09:50 -36.98058 174.89933 3052 ft 248 kts 66°
2026-05-07 09:50 -36.97481 174.92004 3799 ft 256 kts 67°
2026-05-07 09:50 -36.96890 174.94137 4596 ft 263 kts 68°
2026-05-07 09:50 -36.96286 174.96325 5363 ft 270 kts 68°
2026-05-07 09:51 -36.95667 174.98568 6182 ft 275 kts 69°
2026-05-07 09:51 -36.95346 175.00954 6916 ft 285 kts 92°
2026-05-07 09:51 -36.95932 175.03328 7658 ft 292 kts 121°
2026-05-07 09:51 -36.97368 175.05132 8391 ft 298 kts 150°
2026-05-07 09:52 -36.99297 175.06118 9141 ft 302 kts 161°
2026-05-07 09:52 -37.01298 175.06976 9900 ft 306 kts 162°
2026-05-07 09:52 -37.03394 175.07560 10485 ft 315 kts 176°
2026-05-07 09:52 -37.05616 175.07435 10670 ft 335 kts 193°
2026-05-07 09:53 -37.07852 175.06458 11011 ft 345 kts 211°
2026-05-07 09:53 -37.09802 175.04705 11597 ft 346 kts 225°
2026-05-07 09:53 -37.11570 175.02643 12268 ft 349 kts 226°
2026-05-07 09:53 -37.13354 175.00562 12940 ft 352 kts 225°
2026-05-07 09:54 -37.15153 174.98462 13611 ft 355 kts 225°
2026-05-07 09:54 -37.16968 174.96342 14229 ft 358 kts 225°
2026-05-07 09:54 -37.18794 174.94202 14801 ft 361 kts 226°
2026-05-07 09:54 -37.20634 174.92044 15375 ft 363 kts 226°
2026-05-07 09:55 -37.22488 174.89869 15950 ft 366 kts 226°
2026-05-07 09:55 -37.24354 174.87678 16518 ft 368 kts 226°
2026-05-07 09:55 -37.26231 174.85473 17088 ft 371 kts 226°
2026-05-07 09:55 -37.28120 174.83255 17656 ft 373 kts 226°
2026-05-07 09:56 -37.30022 174.81016 18227 ft 376 kts 226°
2026-05-07 09:56 -37.31936 174.78758 18754 ft 378 kts 226°
2026-05-07 09:56 -37.33860 174.76488 19252 ft 381 kts 226°
2026-05-07 09:56 -37.35801 174.74196 19753 ft 384 kts 226°
2026-05-07 09:57 -37.37754 174.71891 20260 ft 386 kts 226°
2026-05-07 09:57 -37.39720 174.69571 20750 ft 389 kts 226°
2026-05-07 09:57 -37.41702 174.67234 21221 ft 392 kts 227°
2026-05-07 09:57 -37.43663 174.64911 21677 ft 394 kts 227°
2026-05-07 09:58 -37.45661 174.62535 22135 ft 396 kts 227°
2026-05-07 09:58 -37.47676 174.60142 22591 ft 399 kts 227°
2026-05-07 09:58 -37.49700 174.57742 23042 ft 401 kts 227°
2026-05-07 09:58 -37.51739 174.55323 23493 ft 404 kts 227°
2026-05-07 09:59 -37.53905 174.53043 23892 ft 410 kts 218°
2026-05-07 09:59 -37.56409 174.51257 24251 ft 417 kts 207°
2026-05-07 09:59 -37.59093 174.49810 24597 ft 421 kts 207°
2026-05-07 09:59 -37.61790 174.48355 24948 ft 423 kts 207°
2026-05-07 10:00 -37.64509 174.46878 25289 ft 426 kts 207°
2026-05-07 10:00 -37.67239 174.45389 25634 ft 428 kts 207°
2026-05-07 10:00 -37.69984 174.43891 25977 ft 431 kts 207°
2026-05-07 10:00 -37.72746 174.42382 26319 ft 434 kts 207°
2026-05-07 10:01 -37.75494 174.40882 26653 ft 436 kts 207°
2026-05-07 10:01 -37.78284 174.39359 26983 ft 439 kts 207°
2026-05-07 10:01 -37.81103 174.37824 27318 ft 441 kts 207°
2026-05-07 10:01 -37.83935 174.36283 27642 ft 444 kts 207°
2026-05-07 10:02 -37.86778 174.34731 27974 ft 446 kts 207°
2026-05-07 10:02 -37.89636 174.33170 28302 ft 449 kts 207°
2026-05-07 10:02 -37.92511 174.31597 28631 ft 451 kts 207°
2026-05-07 10:02 -37.95406 174.30009 28964 ft 454 kts 207°
2026-05-07 10:03 -37.98309 174.28415 29282 ft 456 kts 207°
2026-05-07 10:03 -38.01236 174.26806 29608 ft 459 kts 207°
2026-05-07 10:03 -38.04172 174.25194 30035 ft 459 kts 207°
2026-05-07 10:03 -38.07102 174.23587 30467 ft 458 kts 207°
2026-05-07 10:04 -38.10022 174.21981 30853 ft 458 kts 207°
2026-05-07 10:04 -38.12906 174.20390 31222 ft 457 kts 207°
2026-05-07 10:04 -38.15823 174.18779 31601 ft 457 kts 207°
2026-05-07 10:04 -38.18741 174.17167 31976 ft 457 kts 207°
2026-05-07 10:05 -38.21659 174.15552 32374 ft 457 kts 208°
2026-05-07 10:05 -38.24571 174.13940 32768 ft 456 kts 208°
2026-05-07 10:05 -38.27486 174.12331 33163 ft 456 kts 208°
2026-05-07 10:05 -38.30396 174.10726 33560 ft 455 kts 208°
2026-05-07 10:06 -38.33302 174.09119 33970 ft 455 kts 208°
2026-05-07 10:06 -38.36210 174.07507 34142 ft 456 kts 208°
2026-05-07 10:06 -38.39126 174.05886 34170 ft 458 kts 208°
2026-05-07 10:07 -38.44979 174.02628 34169 ft 458 kts 208°
2026-05-07 10:07 -38.50790 173.99389 34164 ft 458 kts 208°
2026-05-07 10:08 -38.56628 173.96128 34162 ft 457 kts 208°
2026-05-07 10:08 -38.62459 173.92871 34161 ft 457 kts 208°
2026-05-07 10:09 -38.68298 173.89607 34162 ft 457 kts 208°
2026-05-07 10:09 -38.74133 173.86332 34165 ft 457 kts 208°
2026-05-07 10:10 -38.79958 173.83057 34164 ft 457 kts 208°
2026-05-07 10:10 -38.85736 173.79803 34167 ft 456 kts 208°
2026-05-07 10:11 -38.91550 173.76522 34165 ft 456 kts 208°
2026-05-07 10:11 -38.97358 173.73245 34164 ft 455 kts 208°
2026-05-07 10:12 -39.03151 173.69955 34162 ft 454 kts 210°
2026-05-07 10:12 -39.08483 173.65773 34164 ft 447 kts 219°
2026-05-07 10:13 -39.13650 173.61405 34153 ft 447 kts 218°
2026-05-07 10:13 -39.18851 173.57025 34151 ft 446 kts 218°
2026-05-07 10:14 -39.24046 173.52632 34143 ft 446 kts 218°
2026-05-07 10:14 -39.29233 173.48225 34142 ft 445 kts 219°
2026-05-07 10:15 -39.34379 173.43841 34139 ft 445 kts 219°
2026-05-07 10:15 -39.39555 173.39437 34136 ft 445 kts 219°
2026-05-07 10:16 -39.44725 173.35021 34122 ft 445 kts 219°
2026-05-07 10:16 -39.49893 173.30601 34119 ft 445 kts 219°
2026-05-07 10:17 -39.55063 173.26176 34115 ft 445 kts 219°
2026-05-07 10:17 -39.60226 173.21748 34112 ft 445 kts 219°
2026-05-07 10:18 -39.65353 173.17343 34113 ft 444 kts 219°
2026-05-07 10:18 -39.70504 173.12905 34117 ft 444 kts 219°
2026-05-07 10:19 -39.75658 173.08453 34106 ft 444 kts 219°
2026-05-07 10:19 -39.80799 173.04004 34110 ft 444 kts 220°
2026-05-07 10:20 -39.85936 172.99544 34097 ft 443 kts 220°
2026-05-07 10:20 -39.91070 172.95091 34089 ft 443 kts 220°
2026-05-07 10:21 -39.96175 172.90673 34088 ft 443 kts 220°
2026-05-07 10:21 -40.01305 172.86213 34088 ft 443 kts 220°
2026-05-07 10:22 -40.06424 172.81741 34082 ft 443 kts 220°
2026-05-07 10:22 -40.11547 172.77260 34081 ft 442 kts 220°
2026-05-07 10:23 -40.16661 172.72777 34076 ft 442 kts 220°
2026-05-07 10:23 -40.21748 172.68325 34074 ft 442 kts 220°
2026-05-07 10:24 -40.26858 172.63845 34073 ft 442 kts 220°
2026-05-07 10:24 -40.31958 172.59353 34071 ft 441 kts 220°
2026-05-07 10:25 -40.37049 172.54857 34073 ft 441 kts 220°
2026-05-07 10:25 -40.41280 172.51123 34073 ft 440 kts 220°
2026-05-07 10:26 -40.47186 172.45900 34073 ft 440 kts 220°
2026-05-07 10:26 -40.52257 172.41402 34072 ft 439 kts 221°
2026-05-07 10:27 -40.56492 172.37628 34069 ft 439 kts 221°
2026-05-07 10:27 -40.61512 172.33148 34067 ft 438 kts 221°
2026-05-07 10:28 -40.66566 172.28649 34060 ft 438 kts 221°
2026-05-07 10:28 -40.71618 172.24140 34058 ft 438 kts 221°
2026-05-07 10:29 -40.76675 172.19624 34054 ft 438 kts 221°
2026-05-07 10:29 -40.81718 172.15111 34055 ft 438 kts 221°
2026-05-07 10:30 -40.89231 172.08340 34049 ft 437 kts 221°
2026-05-07 10:30 -40.94251 172.03804 34045 ft 436 kts 221°
2026-05-07 10:31 -40.99272 171.99282 34045 ft 436 kts 221°
2026-05-07 10:31 -41.04283 171.94761 34036 ft 435 kts 221°
2026-05-07 10:32 -41.09285 171.90237 34032 ft 435 kts 221°
2026-05-07 10:32 -41.14243 171.85732 34025 ft 435 kts 221°
2026-05-07 10:33 -41.19229 171.81194 34025 ft 434 kts 221°
2026-05-07 10:33 -41.24216 171.76653 34013 ft 434 kts 221°
2026-05-07 10:34 -41.29200 171.72106 34018 ft 434 kts 221°
2026-05-07 10:34 -41.34181 171.67554 34010 ft 434 kts 221°
2026-05-07 10:35 -41.39155 171.62999 34007 ft 434 kts 221°
2026-05-07 10:35 -41.44123 171.58436 34006 ft 433 kts 222°
2026-05-07 10:36 -41.49084 171.53865 34008 ft 433 kts 222°
2026-05-07 10:36 -41.54018 171.49324 34005 ft 433 kts 222°
2026-05-07 10:37 -41.58977 171.44748 33995 ft 433 kts 222°
2026-05-07 10:37 -41.63938 171.40163 33992 ft 433 kts 222°
2026-05-07 10:38 -41.68895 171.35570 33996 ft 433 kts 222°
2026-05-07 10:38 -41.73851 171.30971 33989 ft 433 kts 222°
2026-05-07 10:39 -41.78802 171.26354 33994 ft 433 kts 222°
2026-05-07 10:39 -41.83725 171.21766 33983 ft 434 kts 222°
2026-05-07 10:40 -41.88688 171.17140 33984 ft 434 kts 222°
2026-05-07 10:40 -41.93640 171.12491 33980 ft 434 kts 222°
2026-05-07 10:41 -41.98588 171.07833 33979 ft 434 kts 222°
2026-05-07 10:41 -42.03531 171.03174 33961 ft 434 kts 222°
2026-05-07 10:42 -42.08480 170.98509 33966 ft 434 kts 222°
2026-05-07 10:42 -42.13424 170.93827 33965 ft 434 kts 222°
2026-05-07 10:43 -42.18366 170.89144 33970 ft 434 kts 222°
2026-05-07 10:43 -42.23276 170.84484 33968 ft 434 kts 223°
2026-05-07 10:44 -42.28219 170.79787 33964 ft 434 kts 223°
2026-05-07 10:44 -42.33156 170.75088 33964 ft 434 kts 223°
2026-05-07 10:45 -42.38082 170.70375 33967 ft 433 kts 223°
2026-05-07 10:45 -42.42976 170.65681 33960 ft 433 kts 223°
2026-05-07 10:46 -42.47899 170.60966 33965 ft 433 kts 223°
2026-05-07 10:46 -42.52813 170.56247 33966 ft 432 kts 223°
2026-05-07 10:47 -42.57717 170.51525 33964 ft 432 kts 223°
2026-05-07 10:47 -42.62615 170.46794 33964 ft 431 kts 223°
2026-05-07 10:48 -42.67571 170.41988 33929 ft 442 kts 224°
2026-05-07 10:48 -42.72609 170.37123 33934 ft 445 kts 223°
2026-05-07 10:49 -42.77622 170.32266 33938 ft 445 kts 224°
2026-05-07 10:49 -42.82663 170.27362 33930 ft 445 kts 224°
2026-05-07 10:50 -42.87707 170.22456 33947 ft 445 kts 224°
2026-05-07 10:50 -42.92741 170.17537 33940 ft 445 kts 224°
2026-05-07 10:51 -42.97739 170.12640 33951 ft 445 kts 224°
2026-05-07 10:51 -43.02777 170.07714 33958 ft 445 kts 224°
2026-05-07 10:52 -43.07803 170.02776 33958 ft 444 kts 224°
2026-05-07 10:52 -43.12822 169.97822 33958 ft 444 kts 224°
2026-05-07 10:53 -43.17840 169.92872 33955 ft 444 kts 224°
2026-05-07 10:53 -43.22827 169.87948 33952 ft 444 kts 224°
2026-05-07 10:54 -43.27839 169.82987 33947 ft 444 kts 224°
2026-05-07 10:54 -43.32849 169.78010 33951 ft 444 kts 225°
2026-05-07 10:55 -43.37852 169.73032 33947 ft 444 kts 225°
2026-05-07 10:55 -43.42856 169.68053 33939 ft 443 kts 225°
2026-05-07 10:56 -43.47819 169.63091 33937 ft 443 kts 225°
2026-05-07 10:56 -43.52804 169.58096 33938 ft 443 kts 225°
2026-05-07 10:57 -43.57790 169.53099 33935 ft 443 kts 225°
2026-05-07 10:57 -43.62769 169.48090 33935 ft 442 kts 225°
2026-05-07 10:58 -43.67752 169.43080 33923 ft 442 kts 225°
2026-05-07 10:58 -43.72684 169.38102 33926 ft 441 kts 225°
2026-05-07 10:59 -43.77645 169.33072 33920 ft 441 kts 225°
2026-05-07 10:59 -43.82598 169.28045 33919 ft 442 kts 225°
2026-05-07 11:00 -43.87557 169.23026 33910 ft 440 kts 224°
2026-05-07 11:00 -43.90026 169.20521 33772 ft 437 kts 224°
2026-05-07 11:00 -43.92464 169.18052 33501 ft 430 kts 225°
2026-05-07 11:01 -43.94865 169.15615 33228 ft 425 kts 225°
2026-05-07 11:01 -43.97234 169.13200 32960 ft 422 kts 225°
2026-05-07 11:01 -43.99565 169.10817 32705 ft 420 kts 225°
2026-05-07 11:01 -44.01903 169.08422 32344 ft 415 kts 225°
2026-05-07 11:02 -44.04220 169.06039 31884 ft 412 kts 225°
2026-05-07 11:02 -44.06517 169.03673 31430 ft 410 kts 225°
2026-05-07 11:02 -44.08812 169.01311 30982 ft 409 kts 225°
2026-05-07 11:02 -44.11096 168.98959 30544 ft 407 kts 225°
2026-05-07 11:03 -44.13371 168.96621 30109 ft 406 kts 225°
2026-05-07 11:03 -44.15642 168.94288 29619 ft 404 kts 225°
2026-05-07 11:03 -44.17898 168.91968 29183 ft 401 kts 225°
2026-05-07 11:03 -44.20136 168.89668 28752 ft 397 kts 225°
2026-05-07 11:04 -44.22323 168.87417 28347 ft 395 kts 225°
2026-05-07 11:04 -44.24529 168.85138 27939 ft 393 kts 225°
2026-05-07 11:04 -44.26718 168.82868 27519 ft 391 kts 225°
2026-05-07 11:04 -44.28897 168.80604 27109 ft 390 kts 225°
2026-05-07 11:05 -44.31071 168.78346 26688 ft 389 kts 225°
2026-05-07 11:05 -44.33239 168.76094 26271 ft 388 kts 225°
2026-05-07 11:05 -44.35407 168.73839 25848 ft 387 kts 225°
2026-05-07 11:05 -44.37567 168.71586 25402 ft 387 kts 224°
2026-05-07 11:06 -44.39719 168.69338 24961 ft 386 kts 224°
2026-05-07 11:06 -44.41870 168.67087 24495 ft 385 kts 224°
2026-05-07 11:06 -44.44014 168.64850 24040 ft 383 kts 224°
2026-05-07 11:06 -44.46120 168.62653 23592 ft 381 kts 224°
2026-05-07 11:07 -44.48242 168.60435 23083 ft 380 kts 224°
2026-05-07 11:07 -44.50360 168.58222 22613 ft 379 kts 224°
2026-05-07 11:07 -44.52471 168.56014 22151 ft 377 kts 224°
2026-05-07 11:07 -44.54567 168.53819 21687 ft 375 kts 224°
2026-05-07 11:08 -44.56639 168.51648 21434 ft 367 kts 224°
2026-05-07 11:08 -44.58678 168.49507 21011 ft 366 kts 224°
2026-05-07 11:08 -44.60707 168.47368 20560 ft 364 kts 224°
2026-05-07 11:08 -44.62885 168.45507 20104 ft 373 kts 208°
2026-05-07 11:09 -44.65458 168.44807 19807 ft 381 kts 184°
2026-05-07 11:09 -44.68033 168.45432 19436 ft 383 kts 161°
2026-05-07 11:09 -44.70342 168.47385 19045 ft 384 kts 143°
2026-05-07 11:09 -44.72419 168.49667 18685 ft 383 kts 143°
2026-05-07 11:10 -44.73834 168.51231 18457 ft 382 kts 143°
2026-05-07 11:10 -44.75475 168.52821 18239 ft 372 kts 152°
2026-05-07 11:10 -44.77827 168.54276 17486 ft 367 kts 168°
2026-05-07 11:10 -44.80307 168.54875 16776 ft 358 kts 184°
2026-05-07 11:11 -44.82740 168.54613 16150 ft 344 kts 199°
2026-05-07 11:11 -44.84964 168.53679 15760 ft 326 kts 206°
2026-05-07 11:11 -44.87098 168.52663 15407 ft 322 kts 206°
2026-05-07 11:11 -44.89220 168.51658 15051 ft 321 kts 206°
2026-05-07 11:12 -44.91338 168.50659 14706 ft 321 kts 206°
2026-05-07 11:12 -44.93446 168.49619 14343 ft 317 kts 211°
2026-05-07 11:12 -44.95303 168.48077 13991 ft 303 kts 226°
2026-05-07 11:12 -44.96761 168.46058 13647 ft 292 kts 239°
2026-05-07 11:13 -44.97832 168.43671 13278 ft 285 kts 251°
2026-05-07 11:13 -44.98708 168.41161 12912 ft 285 kts 251°
2026-05-07 11:13 -44.99588 168.38655 12540 ft 285 kts 251°
2026-05-07 11:13 -45.00468 168.36151 12179 ft 283 kts 251°
2026-05-07 11:14 -45.01341 168.33666 11825 ft 282 kts 251°
2026-05-07 11:14 -45.01932 168.31981 11577 ft 283 kts 251°
2026-05-07 11:14 -45.03367 168.28838 11094 ft 297 kts 234°
2026-05-07 11:14 -45.04377 168.27494 10835 ft 306 kts 225°
2026-05-07 11:15 -45.06239 168.25918 10439 ft 318 kts 209°
2026-05-07 11:15 -45.08413 168.25070 10017 ft 330 kts 192°
2026-05-07 11:15 -45.10736 168.25103 9580 ft 338 kts 174°
2026-05-07 11:15 -45.13613 168.26562 8984 ft 328 kts 147°
2026-05-07 11:16 -45.14790 168.27928 8686 ft 321 kts 131°
2026-05-07 11:16 -45.15986 168.30498 8266 ft 308 kts 108°
2026-05-07 11:16 -45.16470 168.33382 7802 ft 296 kts 87°
2026-05-07 11:16 -45.16269 168.36204 7394 ft 284 kts 69°
2026-05-07 11:17 -45.15522 168.38674 6987 ft 270 kts 56°
2026-05-07 11:17 -45.14654 168.40986 6610 ft 261 kts 56°
2026-05-07 11:17 -45.13819 168.43221 6270 ft 253 kts 58°
2026-05-07 11:17 -45.13002 168.45408 5893 ft 249 kts 58°
2026-05-07 11:18 -45.12200 168.47554 5534 ft 243 kts 58°
2026-05-07 11:18 -45.11425 168.49634 5184 ft 236 kts 59°
2026-05-07 11:18 -45.10667 168.51662 4829 ft 229 kts 59°
2026-05-07 11:18 -45.09936 168.53610 4675 ft 216 kts 59°
2026-05-07 11:19 -45.09220 168.55509 4746 ft 228 kts 59°
2026-05-07 11:19 -45.08454 168.57541 5230 ft 237 kts 59°
2026-05-07 11:19 -45.07681 168.59629 5874 ft 241 kts 59°
2026-05-07 11:19 -45.06920 168.61758 6692 ft 244 kts 59°
2026-05-07 11:20 -45.06179 168.63912 7467 ft 248 kts 59°
2026-05-07 11:20 -45.05442 168.66149 8225 ft 254 kts 59°
2026-05-07 11:20 -45.04711 168.68454 8987 ft 259 kts 59°
2026-05-07 11:20 -45.03987 168.70832 9714 ft 267 kts 59°
2026-05-07 11:21 -45.03265 168.73275 9932 ft 271 kts 59°
2026-05-07 11:21 -45.02545 168.75739 9995 ft 270 kts 59°
2026-05-07 11:21 -45.01837 168.78170 9996 ft 271 kts 59°
2026-05-07 11:21 -45.01115 168.80625 10002 ft 271 kts 59°
2026-05-07 11:22 -45.00396 168.83090 10002 ft 271 kts 59°
2026-05-07 11:22 -44.99672 168.85540 10006 ft 269 kts 55°
2026-05-07 11:22 -44.98605 168.87598 10003 ft 253 kts 31°
2026-05-07 11:22 -44.97157 168.88843 10004 ft 238 kts 10°
2026-05-07 11:23 -44.95574 168.89217 10003 ft 227 kts 351°
2026-05-07 11:23 -44.94060 168.88794 10010 ft 223 kts 334°
2026-05-07 11:23 -44.92674 168.87572 10008 ft 244 kts 316°
2026-05-07 11:23 -44.91657 168.85624 10009 ft 251 kts 296°
2026-05-07 11:24 -44.91248 168.83223 10002 ft 257 kts 276°
2026-05-07 11:24 -44.91527 168.80673 10057 ft 271 kts 260°
2026-05-07 11:24 -44.92027 168.78090 10716 ft 273 kts 262°
2026-05-07 11:24 -44.92527 168.75494 11475 ft 275 kts 262°
2026-05-07 11:25 -44.93023 168.72904 11879 ft 278 kts 262°
2026-05-07 11:25 -44.93527 168.70257 11986 ft 279 kts 262°
2026-05-07 11:25 -44.94030 168.67607 12004 ft 279 kts 262°
2026-05-07 11:25 -44.94531 168.64958 12005 ft 279 kts 262°
2026-05-07 11:26 -44.95031 168.62311 12006 ft 279 kts 262°
2026-05-07 11:26 -44.95533 168.59643 12009 ft 289 kts 262°
2026-05-07 11:26 -44.96058 168.56782 12002 ft 307 kts 262°
2026-05-07 11:26 -44.96603 168.53833 12007 ft 312 kts 262°
2026-05-07 11:27 -44.97160 168.50857 12014 ft 313 kts 261°
2026-05-07 11:27 -44.97713 168.47946 11925 ft 301 kts 261°
2026-05-07 11:27 -44.98247 168.45141 11788 ft 286 kts 261°
2026-05-07 11:27 -44.98740 168.42566 11729 ft 264 kts 262°
2026-05-07 11:28 -44.99219 168.40156 11671 ft 247 kts 259°
2026-05-07 11:28 -44.99860 168.37964 11621 ft 239 kts 252°
2026-05-07 11:28 -45.00590 168.35872 11570 ft 233 kts 253°
2026-05-07 11:28 -45.01295 168.33861 11518 ft 224 kts 253°
2026-05-07 11:29 -45.01982 168.31895 11439 ft 223 kts 253°
2026-05-07 11:29 -45.02751 168.29971 11200 ft 229 kts 244°
2026-05-07 11:29 -45.03811 168.28205 10877 ft 243 kts 232°
2026-05-07 11:29 -45.05184 168.26687 10365 ft 257 kts 220°
2026-05-07 11:30 -45.06828 168.25585 9889 ft 268 kts 205°
2026-05-07 11:30 -45.08681 168.25014 9386 ft 277 kts 191°
2026-05-07 11:30 -45.10626 168.25073 8863 ft 284 kts 175°
2026-05-07 11:30 -45.12508 168.25780 8455 ft 282 kts 159°
2026-05-07 11:31 -45.14168 168.27131 8192 ft 271 kts 140°
2026-05-07 11:31 -45.15423 168.29038 7936 ft 259 kts 120°
2026-05-07 11:31 -45.16192 168.31270 7710 ft 246 kts 101°
2026-05-07 11:31 -45.16476 168.33545 7556 ft 224 kts 85°
2026-05-07 11:32 -45.15905 168.37621 7239 ft 201 kts 57°
2026-05-07 11:32 -45.15286 168.39299 6997 ft 188 kts 54°
2026-05-07 11:32 -45.14686 168.40910 6647 ft 181 kts 55°
2026-05-07 11:33 -45.14107 168.42463 6395 ft 176 kts 56°
2026-05-07 11:33 -45.13536 168.43988 6144 ft 175 kts 56°
2026-05-07 11:33 -45.12972 168.45491 5887 ft 174 kts 56°
2026-05-07 11:33 -45.12396 168.47026 5638 ft 174 kts 56°
2026-05-07 11:34 -45.11835 168.48519 5390 ft 174 kts 57°
2026-05-07 11:34 -45.11268 168.50026 5147 ft 173 kts 57°
2026-05-07 11:34 -45.10703 168.51529 4903 ft 173 kts 58°
2026-05-07 11:34 -45.10139 168.53028 4656 ft 172 kts 58°
2026-05-07 11:35 -45.09575 168.54526 4409 ft 172 kts 59°
2026-05-07 11:35 -45.09014 168.56017 4165 ft 171 kts 59°
2026-05-07 11:35 -45.08454 168.57501 3919 ft 171 kts 59°
2026-05-07 11:35 -45.07895 168.58983 3680 ft 169 kts 59°
2026-05-07 11:36 -45.07373 168.60372 3443 ft 153 kts 59°
2026-05-07 11:36 -45.06886 168.61673 3223 ft 146 kts 59°
2026-05-07 11:36 -45.06415 168.62927 3017 ft 143 kts 60°
2026-05-07 11:36 -45.05955 168.64153 2820 ft 140 kts 59°
2026-05-07 11:37 -45.05498 168.65367 2627 ft 139 kts 60°
2026-05-07 11:37 -45.05187 168.66189 2500 ft 139 kts 59°
2026-05-07 11:37 -45.04736 168.67301 2318 ft 140 kts 52°
2026-05-07 11:37 -45.04084 168.68330 2114 ft 141 kts 41°
2026-05-07 11:38 -45.03351 168.69256 1900 ft 142 kts 46°
2026-05-07 11:38 -45.02777 168.70386 1732 ft 141 kts 58°
2026-05-07 11:38 -45.02381 168.71649 1508 ft 140 kts 69°
2026-05-07 11:38 -45.02098 168.72957 1318 ft 138 kts 74°
2026-05-07 11:39 -45.01894 168.74278 1174 ft 129 kts 76°
2026-05-07 11:39 -45.01747 168.75173 1172 ft 65 kts 77°
2026-05-07 11:39 -45.01695 168.75437 1169 ft 8 kts 81°
2026-05-07 11:39 -45.01714 168.75416 1172 ft 10 kts 258°
2026-05-07 11:40 -45.01737 168.75230 1171 ft 28 kts 260°
2026-05-07 11:40 -45.01784 168.74932 1174 ft 32 kts 258°
2026-05-07 11:40 -45.01833 168.74614 1174 ft 34 kts 256°
2026-05-07 11:40 -45.01887 168.74283 1173 ft 30 kts 257°
2026-05-07 11:41 -45.01923 168.74140 1173 ft 13 kts 228°
2026-05-07 11:41 -45.01990 168.74089 1170 ft 6 kts 204°
2026-05-07 11:41 -45.02035 168.74061 1172 ft 8 kts 201°
2026-05-07 11:41 -45.02089 168.74036 1172 ft 7 kts 208°
2026-05-07 11:42 -45.02122 168.74013 1171 ft 2 kts 206°
2026-05-07 11:42 -45.02125 168.74011 1172 ft 0 kts 206°